Preview of NWS' New Version of Forecast
This preview is not operational and should not be used for support decisions.
Latest weather observations around

Allen County Airport (KK88)

Using English Units (Switch to International System of Units)
Date/ Time (CDT) Wind (mph) Vis. (mi) Weather Sky Cond. Temp (°F) Rel. Humidity Wind Chill (°F) Heat Index (°F) Pressure Precip. (in)
Air Dwpt 6 hour Altimeter (inHg) Sea level (inHg) 1 hr 3 hr 6 hr
Max Min
Mar 26 15:15 S 9 10 Clear   62 38     42%     30.33        
Mar 26 14:55 Calm 10 Clear   61 38     43%     30.34        
Mar 26 14:35 SSW 7 10 Clear   62 39     43%     30.36        
Mar 26 14:15 Calm 10 Clear   60 38     45%     30.36        
Mar 26 13:55 SW 7 10 Clear   60 39     46%     30.37        
Mar 26 13:35 W 5 10 Clear   59 39     47%     30.38        
Mar 26 13:15 S 5 10 Clear   58 39     48%     30.39        
Mar 26 12:55 Calm 10 Clear   57 40     53%     30.39        
Mar 26 12:35 Calm 10 Clear   57 40     53%     30.41        
Mar 26 12:15 Calm 10 Clear   56 39     53%     30.41        
Mar 26 11:55 WSW 5 10 Clear   56 41     58%     30.41        
Mar 26 11:35 Calm 10 Clear   55 41     60%     30.42        
Mar 26 11:15 Calm 10 Clear   54 42     64%     30.42        
Mar 26 10:55 SSW 3 10 Clear   53 43     68%     30.42        
Mar 26 10:35 Calm 10 Clear   51 44     77%     30.42        
Mar 26 10:15 Calm 10 Clear   49 46     90%     30.41        
Mar 26 09:55 Calm 10 Clear   46 46     100%     30.41        
Mar 26 09:35 ENE 3 7 Clear   45 45     100% 43   30.41        
Mar 26 09:15 Calm 5 Clear   42 42     100%     30.4        
Mar 26 08:50 Calm 4 Clear   40 40     100%     30.4        
Mar 26 08:35 N 3 4 Clear   39 39     100% 37   30.4        
Mar 26 08:15 Calm 2 Clear   36 36     100%     30.39        
Mar 26 07:55 NNW 5 1.5 Clear   35 35     100% 31   30.38        
Mar 26 07:35 NW 8   Clear   33 33     100% 26   30.38        
Mar 26 07:15 WNW 8 1.75 Clear   33 33     100% 26   30.37        
Mar 26 06:55 Calm 0.25 Clear   31 31     100%     30.37        
Mar 26 06:35 Calm 0.25 Clear   32 32     100%     30.36        
Mar 26 06:15 Calm 0.25 Clear   32 32     100%     30.36        
Mar 26 05:55 Calm 2.5 Clear   33 33     100%     30.36        
Mar 26 05:35 Calm 4 Clear   33 33     100%     30.36        
Mar 26 05:15 Calm 0.5 Clear   32 32     100%     30.35        
Mar 26 04:55 NNW 3 0.5 Clear   34 34     100% 31   30.35        
Mar 26 04:35 Calm 0.5 Clear   35 35     100%     30.35        
Mar 26 04:15 Calm 1 Clear   33 33     100%     30.35        
Mar 26 03:55 Calm 0.75 Clear   34 34     100%     30.35        
Mar 26 03:40 Calm 1 Clear   35 35     100%     30.36        
Mar 26 03:15 Calm 1 Clear   36 36     100%     30.36        
Mar 26 02:55 N 5 3 Clear   38 38     100% 35   30.36        
Mar 26 02:35 Calm 2 Clear   37 37     100%     30.35        
Mar 26 02:15 Calm 5 Clear   37 37     100%     30.35        
Mar 26 01:55 NNW 3 5 Clear   40 40     100% 38   30.35        
Mar 26 01:35 Calm 5 Clear   40 40     100%     30.35        
Mar 26 01:15 NNW 3 5 Clear   39 39     100% 37   30.36        
Mar 26 00:55 Calm 3 Clear   40 40     100%     30.36        
Mar 26 00:35 Calm 2.5 Clear   38 38     100%     30.35        
Mar 26 00:15 Calm 7 Clear   40 40     100%     30.35        
Mar 25 23:55 Calm 7 Clear   41 41     100%     30.35        
Mar 25 23:35 Calm 7 Clear   40 40     100%     30.35        
Mar 25 23:15 E 3 7 Clear   42 42     100% 40   30.34        
Mar 25 22:55 Calm 7 Clear   43 43     100%     30.34        
Mar 25 22:35 Calm 10 Clear   44 44     100%     30.35        
Mar 25 22:15 Calm 10 Clear   43 42     98%     30.35        
Mar 25 21:55 Calm 10 Clear   45 45     100%     30.34        
Mar 25 21:35 Calm 10 Clear   47 46     94%     30.34        
Mar 25 21:15 Calm 10 Clear   49 46     89%     30.33        
Mar 25 20:55 Calm 10 Clear   49 46     89%     30.32        
Mar 25 20:35 NNE 3 10 Clear   50 46     87% 49   30.31        
Mar 25 20:15 N 3 10 Clear   50 46     86%     30.31        
Mar 25 19:55 NNE 3 10 Clear   50 46     86%     30.3        
Mar 25 19:35 Calm 10 Clear   51 45     82%     30.3        
Mar 25 19:15 NNE 5 10 Clear   51 45     79%     30.3        
Mar 25 18:55 N 6 10 Clear   51 45     78%     30.3        
Mar 25 18:35 N 7 10 Clear   52 45     77%     30.3        
Mar 25 18:15 N 7 10 Clear   52 45     76%     30.29        
Mar 25 17:55 N 9 10 Clear   53 46     76%     30.28        
Mar 25 17:35 NNW 9 10 Clear   52 45     77%     30.29        
Mar 25 17:15 N 9 10 Clear   53 46     76%     30.29        
Mar 25 16:55 NNW 10 10 Clear   53 46     75%     30.28        
Mar 25 16:35 N 9 10 Clear   53 45     75%     30.29        
Mar 25 16:15 N 8 10 Clear   53 45     75%     30.29        
Mar 25 15:55 N 10 10 Clear   53 46     77%     30.28        
Mar 25 15:35 N 10 10 Clear   53 46     77%     30.28        
Mar 25 15:10 N 8 10 Clear   52 46     80%     30.29        
Mar 25 14:55 N 12 10 Clear   52 45     79%     30.29        
Mar 25 14:35 NNW 10 10 Clear   52 47     81%     30.28        
Mar 25 14:15 NNW 8 10 Clear   53 46     75%     30.28        
Mar 25 13:55 NNW 10 10 Clear   52 46     81%     30.29        
Mar 25 13:35 N 10 10 Clear   51 46     83%     30.29        
Mar 25 13:15 N 9 10 Clear   51 46     84%     30.29        
Mar 25 12:55 NNW 8 10 Clear   51 47     85%     30.29        
Mar 25 12:35 NNW 8 10 Clear   51 47     85%     30.28        
Mar 25 12:15 N 8 10 Clear   51 46     84%     30.28        
Mar 25 11:55 NNW 8 10 Clear   51 47     87%     30.28        
Mar 25 11:35 N 9 10 Clear   50 47     92% 46   30.28        
Mar 25 11:15 N 10 7 Clear   49 48     94% 45   30.27        
Mar 25 10:55 N 12 7 Clear   49 47     94% 44   30.26        
Mar 25 10:35 NNW 12 7 Clear   49 47     95% 44   30.26        
Mar 25 10:15 N 13 7 Cloudy OVC011 49 48     95% 44   30.25        
Mar 25 09:55 N 10 7 Clear   49 48     99% 44   30.24        
Mar 25 09:35 N 13 7 Clear   48 48     99% 43   30.24        
Mar 25 09:15 N 13 7 Clear   48 48     100% 42   30.23        
Mar 25 08:55 N 16 7 Clear   47 47     100% 41   30.22        
Mar 25 08:35 NNW 12 7 Clear   47 47     100% 42   30.21        
Mar 25 08:15 NNW 14 7 Clear   47 47     100% 42   30.2        
Mar 25 07:55 NNW 12 7 Clear   47 47     100% 42   30.19        
Mar 25 07:35 N 10 7 Clear   47 47     100% 43   30.18        
Mar 25 07:15 NNW 9 7 Clear   47 47     100% 43   30.18        
Mar 25 06:55 N 12 7 Clear   47 47     100% 42   30.17        
Mar 25 06:35 N 12 7 Clear   47 47     100% 42   30.17        
Mar 25 06:15 N 9 7 Clear   48 48     100% 43   30.16        
Mar 25 05:55 N 10 10 Clear   48 48     100% 43   30.16        
Mar 25 05:35 NNW 14 10 Clear   48 48     100% 42   30.14        
Mar 25 05:15 NNW 12 10 Clear   48 48     100% 43   30.14        
Mar 25 04:55 NNW 15 10 Clear   48 48     100% 43   30.14        
Mar 25 04:35 NNW 13 10 Clear   48 48     99% 43   30.13        
Mar 25 04:15 NNW 13 10 Clear   49 49     99% 44   30.14        
Mar 25 03:55 NNW 10 10 Clear   49 49     98% 45   30.13        
Mar 25 03:35 NNW 10 10 Clear   49 49     98% 45   30.13        
Mar 25 03:15 N 9 10 Clear   49 49     99% 45   30.14        
Mar 25 02:55 NNW 9 10 Clear   49 49     99% 45   30.14        
Mar 25 02:35 NNW 9 10 Clear   49 49     99% 46   30.14        
Mar 25 02:15 NNW 12 10 Clear   49 49     99% 45   30.14        
Mar 25 01:55 NNW 13 10 Clear   50 50     100% 45   30.13        
Mar 25 01:35 NNW 12 10 Clear   50 50     100% 45   30.13        
Mar 25 01:15 NNW 12 10 Clear   49 49     100% 45   30.13        
Mar 25 00:50 NNW 6 7 Clear   47 47     100% 45   30.12        
Mar 25 00:35 NNW 7 7 Clear   47 47     100% 43   30.12        
Mar 25 00:15 NNW 6 10 Clear   47 47     100% 44   30.11        
Mar 24 23:55 NNW 7 10 Clear   48 48     100% 45   30.11        
Mar 24 23:35 NNW 6 10 Clear   49 49     100% 47   30.1        
Mar 24 23:15 NW 9 10 Clear   50 49     98%     30.1        
Mar 24 23:00 NW 8 10 Clear   50 49     96%     30.1        
Mar 24 22:35 NW 8 10 Clear   51 49     92%     30.09        
Mar 24 22:15 NW 7 10 Clear   51 49     93%     30.09        
Mar 24 21:55 NW 8 10 Clear   51 49     92%     30.08        
Mar 24 21:35 NW 7 10 Clear   52 48     87%     30.07        
Mar 24 21:15 NW 7 10 Clear   51 48     89%     30.06        
Mar 24 20:55 NW 6 10 Clear   51 47     88%     30.06        
Mar 24 20:35 NW 5 10 Clear   50 46     86%     30.05        
Mar 24 20:15 NW 6 10 Clear   51 46     82%     30.05        
Mar 24 19:55 WNW 7 10 Clear   53 46     77%     30.04        
Mar 24 19:35 WNW 9 10 Clear   54 46     73%     30.04        
Mar 24 19:15 WNW 10 10 Clear   56 46     67%     30.04        
Mar 24 18:55 WNW 13 10 Clear   57 45     64%     30.04        
Mar 24 18:35 WNW 14 10 Clear   59 45     58%     30.03        
Mar 24 18:15 NW 14 10 Clear   58 45     62%     30.02        
Mar 24 17:55 NW 13 10 Clear   59 45     61%     30.01        
Mar 24 17:35 NW 13 10 Clear   59 45     61%     30.01        
Mar 24 17:15 NW 14 10 Clear   59 45     60%     30.01        
Mar 24 16:55 NW 12 10 Clear   60 44     55%     30        
Mar 24 16:35 WNW 10 10 Clear   60 45     56%     30        
Mar 24 16:15 NW 20 10 Mostly Cloudy and Windy BKN038 61 45     55%     30        
Mar 24 15:55 W 17 10 Clear   61 45     54%     29.99        
Mar 24 15:35 WNW 17 10 Clear   62 46     55%     29.99        
Mar 24 15:15 WNW 15 10 Clear   63 46     54%     29.99        
Mar 24 14:55 WNW 10 10 Clear   59 46     62%     29.99        
Mar 24 14:35 W 17 10 Clear   63 47     56%     29.99        
Mar 24 14:15 WNW 20 10 Clear   63 47     57%     29.99        
Mar 24 13:55 WNW 14 10 Clear   63 47     56%     29.99        
Mar 24 13:35 W 13 10 Clear   64 47     55%     29.99        
Mar 24 13:15 W 10 10 Clear   64 46     52%     29.98        
Mar 24 12:55 W 13 10 Clear   63 46     55%     29.98        
Mar 24 12:35 SW 9 10 Clear   62 47     58%     29.99        
Mar 24 12:15 W 8 10 Clear   61 47     62%     29.99        
Mar 24 11:55 WSW 7 10 Clear   60 48     66%     30        
Mar 24 11:35 WSW 7 10 Clear   58 49     72%     30        
Mar 24 11:15 WSW 9 10 Clear   59 51     74%     30        
Mar 24 10:55 W 6 10 Clear   56 51     80%     30        
Mar 24 10:35 W 8 10 Clear   56 51     84%     30        
Mar 24 10:15 WSW 9 10 Clear   55 52     91%     30        
Mar 24 09:55 W 7 10 Clear   54 54     100%     30        
Mar 24 09:35 WSW 7 10 Clear   53 53     100%     30        
Mar 24 09:15 SW 7 7 Clear   53 53     100%     29.99        
Mar 24 08:55 S 5 3 Clear   51 51     100%     29.99        
Mar 24 08:35 SW 5 2.5 Clear   50 50     100%     30        
Mar 24 08:15 SSW 5 2 Clear   50 50     100%     29.99        
Mar 24 07:55 S 5 1.25 Clear   50 50     100% 48   29.99        
Mar 24 07:35 SSW 3 2 Clear   50 50     100% 49   29.99        
Mar 24 07:15 WSW 5 4 Clear   50 50     100% 48   29.99        
Mar 24 06:55 SW 3 5 Clear   50 50     100% 49   29.98        
Mar 24 06:35 S 5 7 Clear   49 49     100% 48   29.98        
Mar 24 06:15 S 3 7 Clear   49 49     100% 48   29.98        
Mar 24 05:55 S 3 7 Clear   49 49     100% 48   29.98        
Mar 24 05:35 Calm 10 Clear   49 49     100%     29.98        
Mar 24 05:15 W 3 10 Clear   49 49     100% 49   29.99        
Mar 24 04:55 WNW 9 10 Clear   49 49     100% 45   29.99        
Mar 24 04:35 SSE 7 10 Clear   49 49     100% 46   29.96        
Mar 24 04:15 SSE 8 10 Clear   49 49     100% 46   29.96        
Mar 24 03:55 S 7 10 Clear   49 49     100% 46   29.96        
Mar 24 03:35 SSE 8 10 Clear   49 49     100% 45   29.97        
Mar 24 03:15 SSE 8 10 Clear   48 48     100% 45   29.97        
Mar 24 02:55 SSE 8 10 Clear   48 48     100% 44   29.98        
Mar 24 02:35 SSE 7 10 Clear   47 47     100% 44   29.99        
Mar 24 02:15 SSE 7 10 Clear   48 48     100% 44   29.99        
Mar 24 01:55 S 5 10 Clear   47 47     100% 45   30        
Mar 24 01:35 SE 9 10 Clear   47 47     100% 43   29.99        
Mar 24 01:15 SE 9 10 Clear   47 47     100% 43   29.98        
Mar 24 00:55 SE 10 10 Clear   48 48     100% 43   29.99        
Mar 24 00:35 SE 13 10 Clear   49 49     100% 43   30.01        
Mar 24 00:15 SE 9 10 Clear   49 49     100% 45   30.02        
Mar 23 23:55 SE 10 10 Clear   49 49     100% 45   30.02        
Mar 23 23:35 SE 10 10 Clear   49 49     100% 45   30.02        
Mar 23 23:15 SE 10 10 Clear   49 49     100% 45   30.02        
Mar 23 22:55 SE 14 10 Clear   50 50     100% 45   30.03        
Mar 23 22:35 SE 14 10 Clear   50 50     100% 44   30.03        
Mar 23 22:15 SE 12 10 Clear   50 50     100%     30.03        
Mar 23 21:55 SE 13 10 Clear   50 50     100% 45   30.04        
Mar 23 21:35 SE 12 10 Clear   50 50     100%     30.04        
Mar 23 21:15 SE 12 10 Clear   50 50     100% 45   30.04        
Mar 23 20:50 SE 13 10 Clear   49 49     100% 45   30.04        
Mar 23 20:35 SE 12 7 Clear   49 49     100% 45   30.04        
Mar 23 20:15 SE 12 7 Clear   50 50     100% 45   30.04        
Mar 23 19:55 SE 13 7 Clear   50 50     100% 45   30.04        
Mar 23 19:35 SE 16 7 Clear   50 50     100%     30.03        
Mar 23 19:15 SE 17 10 Clear   51 51     99%     30.03        
Mar 23 18:55 SE 17 7 Clear   52 50     95%     30.03        
Mar 23 18:35 SE 15 10 Cloudy OVC027 53 49     88%     30.02        
Mar 23 18:15 SE 16 10 Cloudy OVC029 53 49     87%     30.02        
Mar 23 17:55 SE 12 10 Clear   53 50     88%     30.01        
Mar 23 17:35 SE 14 10 Clear   54 50     88%     30.01        
Mar 23 17:15 SE 16 10 Clear   54 50     88%     30.01        
Mar 23 16:55 SSE 16 10 Clear   53 50     90%     30.01        
Mar 23 16:35 SSE 14 10 Clear   53 51     95%     30.01        
Mar 23 16:15 SSE 15 10 Clear   53 52     97%     30.01        
Mar 23 15:55 SSE 14 10 Partly Cloudy SCT110 51 51     99%     30.01        
Mar 23 15:35 S 10 10 Clear   51 51     100%     30.01        
Mar 23 15:15   10 Clear   51 51     100%     30.03        
May 15 11:15 W 8 10 Clear   72 63     72%   73 30.01        
May 15 05:35 Calm 10 Clear   61 60     97%     29.91        
Notice The following observation data may not be complete
May 14 16:15   3 Clear     58      %     29.83        
May 14 13:35 SSW 7 10 Clear   84 68     58%   88 29.92        
May 14 06:15 SSE 8 10 Clear   70 64     81%     29.92        
May 14 01:55 Calm 10 Clear   69 63     80%     29.96        
May 13 23:15 Calm 10 Clear   72 63     73%   72 29.98        
May 13 12:15 S 18 10 Clear   84 67     56%   87 29.99        
May 13 09:55 S 15 10 Clear   77 67     72%   78 30        
May 13 01:15 S 12 10 Clear   72 64     76%   72 29.97        
May 12 18:35 S 12 10 Clear   80 66     63%   82 29.9        
May 12 13:15 S 20 10 Clear   81 66     60%   83 29.91        
May 12 05:15 SSE 12 10 Clear   70 61     72%   70 29.84        
May 12 03:15 SSE 9 10 Clear   70 61     74%   70 29.86        
May 11 08:35   10 Clear   71 60     69%   70 29.76